PSLV R/B

基本信息
目录编号:
44862
目录名称:
PSLV R/B
国际标识:
2019-089L
轨道中心:
EARTH
物体状态:
在轨
发射日期:
2019-12-11 UTC
国别:
印度 (IN)
轨道信息
数据来源: 国际轨道数据
星历时间: 2026-07-13T20:17:37+0800
半长轴: 6783.632km
偏心率: 0.0013267
轨道倾角: 36.967°
近地点辐角: 350.211°
升交点赤经: 250.649°
平近点角: 9.839°
近地点: 396.495km
远地点: 414.495km
周期: 92.673分钟
每日圈数: 15.538509
详细信息
发射场:
SRI
轨道高度:
LEO
数据来源:
AOE Integration Group
参考系:
TEME
时间系统:
UTC
历元类型:
SGP4
2D轨道图
3D轨道图
轨道高度分析图
轨道倾角分析图
轨道综合分析图
查看轨道综合分析图